Prerov, Czech Republic

1:33 PM CET on December 03, 2016 (GMT +0100)
Prerov

Weather History for LKPO - February, 2013

Change the Weather History Date:

Thursday, February 14, 2013

  Actual Average Record
Temperature  
Mean Temperature 31 °F -  
Max Temperature 32 °F - - ()
Min Temperature 30 °F - - ()
Degree Days  
Heating Degree Days 34    
Moisture  
Dew Point 27 °F    
Average Humidity 86    
Maximum Humidity 93    
Minimum Humidity 80    
Precipitation  
Precipitation 0.00 in - - ()
Sea Level Pressure  
Sea Level Pressure 30.15 in    
Wind  
Wind Speed 8 mph ()    
Max Wind Speed 14 mph    
Max Gust Speed -    
Visibility 3.0 miles    
Events Snow    
T = Trace of Precipitation, MM = Missing Value Source: Averaged Metar Reports

Daily Weather History Graph

Daily Weather History Graph

Search for Another Location

Airport or City:

Trip Planner

Search our weather history database for the weather conditions in past years. The results will help you decide how hot, cold, wet, or windy it might be!

Date:

Astronomy

Feb. 14, 2013 Rise Set
Actual Time 7:01 AM CET 5:08 PM CET
Civil Twilight 6:28 AM CET 5:41 PM CET
Nautical Twilight 5:51 AM CET 6:18 PM CET
Astronomical Twilight 5:14 AM CET 6:55 PM CET
Moon 8:24 AM CET (2/14) 10:26 PM CET (2/14)
Length of Visible Light 11h 13m
Length of Day
10h 06m
Waxing Crescent, 19% of the Moon is Illuminated
Feb 14
Waxing Crescent
Feb 17
First Quarter
Feb 25
Full
Mar 4
Last Quarter
Mar 11
New

Hourly Weather History & Observations

Time (CET) Temp. Windchill Dew Point Humidity Pressure Visibility Wind Dir Wind Speed Gust Speed Precip Events Conditions
12:00 AM 32.0 °F 24.8 °F 26.6 °F 80% 30.21 in 3.1 mi NE 8.1 mph - N/A   Overcast
1:00 AM 30.2 °F 23.4 °F 26.6 °F 86% 30.21 in 3.1 mi NE 6.9 mph - N/A   Overcast
2:00 AM 30.2 °F 24.3 °F 26.6 °F 86% 30.21 in 3.1 mi NE 5.8 mph - N/A   Overcast
3:00 AM 30.2 °F 23.4 °F 26.6 °F 86% 30.18 in 2.8 mi NE 6.9 mph - N/A   Overcast
4:00 AM 30.2 °F 23.4 °F 26.6 °F 86% 30.21 in 2.5 mi NE 6.9 mph - N/A   Overcast
5:00 AM 30.2 °F 23.4 °F 26.6 °F 86% 30.18 in 2.8 mi NE 6.9 mph - N/A   Overcast
6:00 AM 30.2 °F 22.6 °F 26.6 °F 86% 30.21 in 2.8 mi NNE 8.1 mph - N/A   Overcast
7:00 AM 30.2 °F 23.4 °F 26.6 °F 86% 30.21 in - NE 6.9 mph - N/A   Overcast
7:19 AM 30.2 °F 24.3 °F 26.6 °F 86% 30.21 in 3.1 mi NNE 5.8 mph - N/A   Overcast
8:00 AM 30.2 °F 22.6 °F 26.6 °F 86% 30.21 in 3.7 mi NE 8.1 mph - N/A   Overcast
8:47 AM 30.2 °F 20.8 °F 26.6 °F 86% 30.21 in 3.7 mi NE 11.5 mph - N/A   Overcast
9:00 AM 30.2 °F 20.8 °F 26.6 °F 86% 30.21 in 3.7 mi NE 11.5 mph - N/A   Overcast
10:00 AM 30.2 °F 20.8 °F 26.6 °F 86% 30.21 in 3.7 mi NE 11.5 mph - N/A   Overcast
11:00 AM 32.0 °F 23.0 °F 26.6 °F 80% 30.21 in 3.7 mi NE 11.5 mph - N/A   Overcast
12:00 PM 32.0 °F 25.6 °F 26.6 °F 80% 30.18 in 3.1 mi NE 6.9 mph - N/A   Overcast
1:00 PM 32.0 °F 23.0 °F 26.6 °F 80% 30.18 in 3.1 mi ENE 11.5 mph - N/A   Overcast
1:34 PM 32.0 °F 23.6 °F 28.4 °F 87% 30.15 in 3.1 mi ENE 10.4 mph - N/A   Overcast
2:00 PM 32.0 °F 23.6 °F 26.6 °F 80% 30.15 in 3.1 mi ENE 10.4 mph - N/A   Mostly Cloudy
3:00 PM 32.0 °F 22.1 °F 28.4 °F 87% 30.12 in 3.1 mi ENE 13.8 mph - N/A   Overcast
4:00 PM 32.0 °F 23.0 °F 28.4 °F 87% 30.12 in 3.1 mi ENE 11.5 mph - N/A   Overcast
4:30 PM 32.0 °F 23.0 °F 28.4 °F 87% 30.12 in 3.1 mi ENE 11.5 mph - N/A   Overcast
5:00 PM 32.0 °F 22.1 °F 28.4 °F 87% 30.12 in 3.1 mi ENE 13.8 mph - N/A   Overcast
5:21 PM 32.0 °F 23.6 °F 28.4 °F 87% 30.12 in - ENE 10.4 mph - N/A   Overcast
6:00 PM 32.0 °F 23.6 °F 28.4 °F 87% 30.12 in 3.1 mi ENE 10.4 mph - N/A   Overcast
6:42 PM 32.0 °F 24.2 °F 28.4 °F 87% 30.12 in 3.1 mi ENE 9.2 mph - N/A   Overcast
7:00 PM 30.2 °F 21.3 °F 26.6 °F 86% 30.12 in 3.1 mi ENE 10.4 mph - N/A   Mostly Cloudy
7:20 PM 30.2 °F 21.9 °F 28.4 °F 93% 30.12 in 3.1 mi ENE 9.2 mph - N/A Snow Light Snow
8:00 PM 32.0 °F 23.6 °F 28.4 °F 87% 30.09 in 3.1 mi ENE 10.4 mph - N/A   Overcast
9:00 PM 32.0 °F 22.5 °F 28.4 °F 87% 30.09 in 3.1 mi ENE 12.7 mph - N/A   Overcast
9:09 PM 32.0 °F 23.6 °F 28.4 °F 87% 30.09 in 3.1 mi ENE 10.4 mph - N/A   Overcast
10:00 PM 32.0 °F 24.2 °F 28.4 °F 87% 30.09 in 3.1 mi ENE 9.2 mph - N/A   Overcast
10:30 PM 32.0 °F 25.6 °F 28.4 °F 87% 30.09 in 2.5 mi ENE 6.9 mph - N/A   Overcast
10:42 PM 32.0 °F 25.6 °F 28.4 °F 87% 30.09 in 1.7 mi ENE 6.9 mph - N/A   Overcast
11:00 PM 32.0 °F 25.6 °F 28.4 °F 87% 30.09 in 1.6 mi ENE 6.9 mph - N/A   Overcast
11:46 PM 32.0 °F 25.6 °F 28.4 °F 87% 30.09 in - ENE 6.9 mph - N/A   Overcast